Data for 10/04/2018

Time Sea-Level Adjusted Pressure Absolute Pressure Temperature Relative Humidity Dew Point   
(mb) (inHg) (mb) (inHg) (C) (F) (%) (C) (F)
00:05 1017 30.03 846 24.98 0.5 33 78 -2.8 26.9
00:10 1017 30.03 846 24.98 0.6 33 78 -2.8 27
00:15 1017 30.03 846 24.98 0.5 33 78 -2.9 26.9
00:20 1017 30.03 846 24.98 0.5 33 78 -2.8 26.9
00:25 1017 30.03 846 24.98 0.6 33 78 -2.8 27
00:30 1017 30.03 846 24.98 0.6 33.1 78 -2.8 27
00:35 1017 30.03 846 24.98 0.6 33 79 -2.7 27.1
00:40 1017 30.03 846 24.98 0.5 32.8 79 -2.7 27.2
00:45 1017 30.03 846 24.98 0.3 32.6 80 -2.7 27.1
00:50 1017 30.03 846 24.98 0.3 32.5 80 -2.8 27
00:55 1017 30.03 846 24.98 0.4 32.6 80 -2.7 27.1
01:00 1017 30.03 846 24.98 0.4 32.8 79 -2.7 27.1
01:05 1017 30.03 846 24.98 0.5 33 79 -2.7 27.1
01:10 1017 30.03 846 24.98 0.6 33 78 -2.8 26.9
01:15 1017 30.03 846 24.98 0.6 33.1 78 -2.8 27
01:20 1017 30.03 846 24.98 0.6 33.1 78 -2.7 27.1
01:25 1017 30.03 846 24.98 0.5 33 79 -2.8 27
01:30 1017 30.03 846 24.98 0.5 32.9 79 -2.8 27
01:35 1016 30 846 24.98 0.5 32.9 79 -2.8 27
01:40 1016 30 846 24.98 0.5 32.8 79 -2.8 26.9
01:45 1016 30 846 24.98 0.5 32.8 79 -2.8 27
01:50 1016 30 846 24.98 0.3 32.6 80 -2.8 27
01:55 1016 30 846 24.98 0.3 32.5 80 -2.8 27
02:00 1016 30 846 24.98 0.3 32.5 80 -2.8 26.9
02:05 1016 30 845 24.95 0.2 32.4 80 -2.8 26.9
02:10 1016 30 845 24.95 0.2 32.4 80 -2.8 27
02:15 1016 30 845 24.95 0.2 32.4 80 -2.8 26.9
02:20 1016 30 845 24.95 0.2 32.4 80 -2.8 26.9
02:25 1016 30 846 24.98 0.2 32.4 80 -2.8 26.9
02:30 1016 30 845 24.95 0.2 32.3 80 -2.8 26.9
02:35 1016 30 845 24.95 0.1 32.2 80 -2.9 26.8
02:40 1016 30 845 24.95 0.1 32.2 80 -2.9 26.7
02:45 1016 30 845 24.95 0.1 32.2 79 -3 26.6
02:50 1016 30 845 24.95 0.2 32.3 79 -3 26.5
02:55 1016 30 845 24.95 0.2 32.3 79 -3.1 26.5
03:00 1016 30 845 24.95 0.1 32.1 79 -3.1 26.4
03:05 1016 30 845 24.95 0 32.1 79 -3.2 26.2
03:10 1016 30 845 24.95 0.1 32.2 78 -3.3 26.1
03:15 1016 30 845 24.95 0.3 32.5 76 -3.4 25.8
03:20 1016 30 845 24.95 0.4 32.7 76 -3.4 25.9
03:25 1016 30 845 24.95 0.5 32.8 75 -3.5 25.8
03:30 1016 30 845 24.95 0.4 32.8 75 -3.4 25.9
03:35 1016 30 845 24.95 0.4 32.7 75 -3.5 25.7
03:40 1016 30 845 24.95 0.4 32.7 74 -3.7 25.4
03:45 1015 29.97 845 24.95 0.4 32.7 75 -3.6 25.5
03:50 1015 29.97 845 24.95 0.3 32.6 75 -3.6 25.5
03:55 1015 29.97 845 24.95 0.3 32.6 75 -3.6 25.4
04:00 1015 29.97 845 24.95 0.3 32.6 74 -3.7 25.3
04:05 1015 29.97 844 24.92 0.4 32.6 74 -3.7 25.3
04:10 1015 29.97 844 24.92 0.4 32.7 73 -3.8 25.1
04:15 1015 29.97 844 24.92 0.5 32.9 72 -3.9 25
04:20 1015 29.97 844 24.92 0.6 33.1 71 -4.1 24.7
04:25 1015 29.97 844 24.92 0.8 33.5 69 -4.2 24.5
04:30 1015 29.97 844 24.92 1.1 33.9 68 -4.1 24.5
04:35 1015 29.97 844 24.92 1 33.9 69 -4 24.8
04:40 1015 29.97 844 24.92 1 33.7 69 -4.1 24.6
04:45 1015 29.97 844 24.92 1.1 33.9 68 -4.2 24.5
04:50 1015 29.97 844 24.92 1.2 34.1 68 -4 24.7
04:55 1015 29.97 844 24.92 1.2 34.1 67 -4.2 24.4
05:00 1015 29.97 844 24.92 1.2 34.2 68 -4.1 24.6
05:05 1015 29.97 844 24.92 1.2 34.1 67 -4.2 24.4
05:10 1015 29.97 844 24.92 1.2 34.2 67 -4.2 24.5
05:15 1015 29.97 844 24.92 1.2 34.1 68 -4.1 24.6
05:20 1015 29.97 844 24.92 1.1 34 68 -4.1 24.7
05:25 1015 29.97 844 24.92 1.1 33.9 69 -4.1 24.7
05:30 1015 29.97 844 24.92 1 33.9 70 -3.9 25
05:35 1015 29.97 844 24.92 1 33.8 72 -3.6 25.6
05:40 1015 29.97 844 24.92 0.8 33.4 74 -3.3 26.1
05:45 1015 29.97 844 24.92 0.7 33.3 71 -4 24.9
05:50 1015 29.97 844 24.92 0.8 33.4 70 -4.1 24.5
05:55 1015 29.97 844 24.92 1 33.7 68 -4.2 24.4
06:00 1015 29.97 844 24.92 1 33.9 68 -4.2 24.5
06:05 1015 29.97 844 24.92 1.1 33.9 69 -3.9 25
06:10 1014 29.94 844 24.92 1.1 34 70 -3.7 25.3
06:15 1014 29.94 844 24.92 1.1 34 70 -3.7 25.3
06:20 1014 29.94 844 24.92 1.1 33.9 70 -3.9 25
06:25 1014 29.94 844 24.92 1 33.8 70 -3.9 25
06:30 1014 29.94 844 24.92 1 33.7 69 -4 24.8
06:35 1014 29.94 844 24.92 1 33.7 70 -3.9 25
06:40 1014 29.94 844 24.92 1 33.7 70 -3.9 25
06:45 1014 29.94 844 24.92 0.9 33.7 70 -3.9 25
06:50 1014 29.94 844 24.92 1 33.8 71 -3.8 25.2
06:55 1014 29.94 844 24.92 1 33.8 70 -3.9 25
07:00 1014 29.94 844 24.92 1.1 33.9 70 -3.9 25.1
07:05 1014 29.94 844 24.92 1.1 34 70 -3.8 25.1
07:10 1014 29.94 844 24.92 1.1 34 70 -3.8 25.1
07:15 1014 29.94 844 24.92 1.1 34 70 -3.8 25.1
07:20 1014 29.94 844 24.92 1.1 34 70 -3.8 25.2
07:25 1014 29.94 844 24.92 1.1 34 70 -3.8 25.2
07:30 1014 29.94 844 24.92 1.1 34 70 -3.7 25.3
07:35 1014 29.94 843 24.89 1.2 34.1 70 -3.7 25.3
07:40 1014 29.94 843 24.89 1.2 34.1 70 -3.7 25.4
07:45 1014 29.94 843 24.89 1.2 34.1 71 -3.6 25.5
07:50 1014 29.94 843 24.89 1.2 34.1 70 -3.6 25.5
07:55 1014 29.94 843 24.89 1.2 34.1 71 -3.5 25.8
08:00 1014 29.94 843 24.89 1.2 34.2 71 -3.4 25.9
08:05 1014 29.94 843 24.89 1.4 34.4 69 -3.6 25.5
08:10 1014 29.94 843 24.89 1.4 34.6 69 -3.7 25.4
08:15 1014 29.94 843 24.89 1.5 34.7 69 -3.7 25.4
08:20 1014 29.94 843 24.89 1.5 34.7 69 -3.6 25.5
08:25 1014 29.94 843 24.89 1.6 34.8 69 -3.5 25.7
08:30 1014 29.94 843 24.89 1.7 35.1 68 -3.5 25.7
08:35 1014 29.94 843 24.89 1.8 35.3 68 -3.4 25.9
08:40 1014 29.94 843 24.89 2 35.6 67 -3.4 25.8
08:45 1014 29.94 843 24.89 2.1 35.8 66 -3.6 25.6
08:50 1014 29.94 843 24.89 2.1 35.8 67 -3.5 25.8
08:55 1014 29.94 843 24.89 2.1 35.8 67 -3.4 25.9
09:00 1014 29.94 843 24.89 2.1 35.8 67 -3.3 26
09:05 1014 29.94 843 24.89 2.3 36.1 67 -3.1 26.3
09:10 1014 29.94 843 24.89 2.4 36.4 68 -3 26.7
09:15 1014 29.94 843 24.89 2.5 36.5 66 -3.2 26.3
09:20 1014 29.94 843 24.89 2.6 36.7 66 -3.1 26.3
09:25 1013 29.91 843 24.89 2.7 36.9 65 -3.3 26.1
09:30 1013 29.91 843 24.89 2.5 36.6 66 -3.2 26.3
09:35 1013 29.91 842 24.86 2.6 36.7 66 -3.1 26.4
09:40 1013 29.91 843 24.89 2.7 36.9 66 -2.9 26.8
09:45 1013 29.91 842 24.86 3 37.3 66 -2.7 27.1
09:50 1013 29.91 842 24.86 3 37.5 70 -1.8 28.7
09:55 1013 29.91 842 24.86 3.1 37.6 72 -1.5 29.3
10:00 1013 29.91 842 24.86 3.1 37.7 72 -1.5 29.3
10:05 1013 29.91 842 24.86 2.5 36.5 74 -1.6 29.1
10:10 1013 29.91 842 24.86 2.7 36.9 72 -1.9 28.6
10:15 1013 29.91 842 24.86 2.9 37.2 71 -1.8 28.7
10:20 1013 29.91 842 24.86 3 37.4 70 -1.9 28.7
10:25 1013 29.91 842 24.86 3.2 37.8 70 -1.7 28.9
10:30 1013 29.91 842 24.86 2.9 37.3 74 -1.3 29.6
10:35 1013 29.91 842 24.86 2.7 36.9 74 -1.3 29.6
10:40 1013 29.91 842 24.86 2.7 36.9 73 -1.6 29.2
10:45 1013 29.91 842 24.86 2.5 36.6 76 -1.3 29.7
10:50 1013 29.91 842 24.86 2.6 36.7 76 -1.2 29.9
10:55 1013 29.91 842 24.86 2.8 37 76 -1 30.2
11:00 1013 29.91 842 24.86 2.9 37.3 77 -0.8 30.6
11:05 1013 29.91 842 24.86 3.4 38.1 75 -0.6 30.9
11:10 1013 29.91 842 24.86 3.7 38.7 75 -0.3 31.5
11:15 1013 29.91 842 24.86 3.6 38.4 74 -0.7 30.7
11:20 1013 29.91 842 24.86 3.4 38.1 75 -0.6 30.8
11:25 1013 29.91 842 24.86 3.6 38.4 75 -0.4 31.2
11:30 1012 29.88 842 24.86 3.4 38.2 73 -1 30.3
11:35 1012 29.88 842 24.86 3.4 38.1 73 -1 30.3
11:40 1013 29.91 842 24.86 3.5 38.3 70 -1.5 29.4
11:45 1013 29.91 842 24.86 3.5 38.4 71 -1.2 29.8
11:50 1012 29.88 842 24.86 3.9 39 72 -0.7 30.7
11:55 1013 29.91 842 24.86 4.2 39.5 72 -0.5 31.1
12:00 1013 29.91 842 24.86 4.1 39.3 72 -0.5 31.2
12:05 1012 29.88 842 24.86 3.9 39 77 0.2 32.3
12:10 1013 29.91 842 24.86 3.9 39 78 0.4 32.7
12:15 1013 29.91 842 24.86 3.9 39 77 0.3 32.6
12:20 1013 29.91 842 24.86 3.8 38.8 78 0.2 32.4
12:25 1013 29.91 842 24.86 3.7 38.7 79 0.4 32.8
12:30 1013 29.91 842 24.86 3.9 39 79 0.5 33
12:35 1013 29.91 842 24.86 3.9 39 77 0.3 32.5
12:40 1013 29.91 842 24.86 3.6 38.6 81 0.8 33.4
12:45 1013 29.91 842 24.86 3.5 38.4 80 0.4 32.7
12:50 1013 29.91 842 24.86 3.3 37.9 82 0.4 32.8
12:55 1012 29.88 842 24.86 3.3 37.9 80 0.2 32.3
13:00 1012 29.88 842 24.86 3 37.3 82 0.3 32.5
13:05 1012 29.88 842 24.86 3 37.5 84 0.6 33.1
13:10 1012 29.88 841 24.83 3.2 37.8 83 0.6 33.1
13:15 1012 29.88 841 24.83 3.4 38.1 81 0.5 33
13:20 1012 29.88 841 24.83 3.3 38 83 0.7 33.2
13:25 1012 29.88 841 24.83 3.5 38.2 83 0.8 33.4
13:30 1012 29.88 841 24.83 3.7 38.6 83 1 33.8
13:35 1012 29.88 841 24.83 3.6 38.4 85 1.3 34.4
13:40 1012 29.88 841 24.83 3.9 39 83 1.3 34.3
13:45 1012 29.88 841 24.83 4.5 40.1 82 1.6 34.9
13:50 1012 29.88 841 24.83 5.4 41.7 79 2.1 35.8
13:55 1012 29.88 841 24.83 5.9 42.7 79 2.6 36.7
14:00 1012 29.88 841 24.83 5.9 42.7 79 2.5 36.5
14:05 1012 29.88 841 24.83 5.9 42.6 77 2.3 36.1
14:10 1012 29.88 841 24.83 5.8 42.4 76 1.9 35.3
14:15 1012 29.88 841 24.83 5.7 42.3 78 2.1 35.8
14:20 1012 29.88 841 24.83 5.9 42.7 76 2.1 35.7
14:25 1012 29.88 841 24.83 5.6 42.1 80 2.5 36.4
14:30 1012 29.88 841 24.83 5.7 42.2 79 2.3 36.2
14:35 1012 29.88 841 24.83 5.4 41.8 81 2.4 36.3
14:40 1012 29.88 841 24.83 5.2 41.4 82 2.3 36.2
14:45 1012 29.88 841 24.83 5.2 41.4 79 1.9 35.5
14:50 1012 29.88 841 24.83 5.2 41.4 79 1.9 35.4
14:55 1012 29.88 841 24.83 5 41 81 1.9 35.5
15:00 1012 29.88 841 24.83 5 41 81 2 35.5
15:05 1012 29.88 841 24.83 5 40.9 79 1.7 35
15:10 1012 29.88 841 24.83 5.2 41.4 80 2 35.6
15:15 1012 29.88 841 24.83 5.3 41.6 79 2 35.6
15:20 1012 29.88 841 24.83 5.3 41.6 78 1.8 35.3
15:25 1012 29.88 841 24.83 5.4 41.8 77 1.7 35
15:30 1012 29.88 841 24.83 5.6 42.1 76 1.7 35.1
15:35 1011 29.85 841 24.83 5.8 42.4 77 2.1 35.8
15:40 1012 29.88 841 24.83 6 42.8 76 2.1 35.7
15:45 1012 29.88 841 24.83 6.1 43 74 1.9 35.4
15:50 1011 29.85 841 24.83 6.2 43.2 74 1.9 35.5
15:55 1012 29.88 841 24.83 6.1 42.9 75 2 35.5
16:00 1012 29.88 841 24.83 5.8 42.4 75 1.8 35.2
16:05 1012 29.88 841 24.83 5.6 42.1 77 1.9 35.4
16:10 1012 29.88 841 24.83 5.8 42.4 77 2 35.7
16:15 1012 29.88 841 24.83 5.6 42.2 78 2.2 35.9
16:20 1012 29.88 841 24.83 5.7 42.2 76 1.9 35.4
16:25 1012 29.88 841 24.83 5.6 42 78 2 35.7
16:30 1012 29.88 841 24.83 5.5 41.9 79 2.2 35.9
16:35 1012 29.88 841 24.83 5.3 41.6 82 2.5 36.4
16:40 1012 29.88 841 24.83 5.3 41.5 83 2.7 36.9
16:45 1012 29.88 841 24.83 5.2 41.4 84 2.8 37
16:50 1012 29.88 841 24.83 5.1 41.3 85 2.8 37.1
16:55 1012 29.88 841 24.83 5.1 41.1 85 2.8 37
17:00 1012 29.88 841 24.83 5 41 86 2.8 37.1
17:05 1012 29.88 841 24.83 4.8 40.7 86 2.6 36.8
17:10 1012 29.88 842 24.86 4.5 40.2 86 2.5 36.4
17:15 1013 29.91 842 24.86 4.5 40 85 2.2 35.9
17:20 1013 29.91 842 24.86 4.4 39.8 83 1.8 35.2
17:25 1013 29.91 842 24.86 4.3 39.8 84 1.8 35.3
17:30 1013 29.91 842 24.86 4.3 39.8 84 1.9 35.4
17:35 1013 29.91 842 24.86 4.3 39.7 83 1.6 34.9
17:40 1013 29.91 842 24.86 4.2 39.6 83 1.5 34.8
17:45 1013 29.91 842 24.86 4.1 39.4 83 1.5 34.6
17:50 1013 29.91 843 24.89 3.6 38.4 85 1.3 34.4
17:55 1013 29.91 843 24.89 3.2 37.7 87 1.2 34.2
18:00 1013 29.91 843 24.89 3 37.4 88 1.2 34.2
18:05 1014 29.94 843 24.89 2.9 37.1 89 1.2 34.1
18:10 1014 29.94 843 24.89 2.9 37.2 89 1.3 34.3
18:15 1014 29.94 843 24.89 2.9 37.2 89 1.3 34.3
18:20 1014 29.94 843 24.89 2.8 37.1 89 1.3 34.3
18:25 1014 29.94 843 24.89 2.8 37 89 1.2 34.2
18:30 1014 29.94 843 24.89 2.8 37 89 1.2 34.2
18:35 1014 29.94 843 24.89 2.8 37 89 1.1 33.9
18:40 1014 29.94 843 24.89 2.5 36.4 88 0.7 33.2
18:45 1014 29.94 843 24.89 1.9 35.3 88 0.1 32.2
18:50 1014 29.94 844 24.92 1.3 34.4 90 -0.2 31.6
18:55 1014 29.94 843 24.89 1 33.9 90 -0.4 31.3
19:00 1014 29.94 843 24.89 0.8 33.4 90 -0.6 30.9
19:05 1014 29.94 844 24.92 0.6 33.1 91 -0.7 30.8
19:10 1014 29.94 844 24.92 0.5 32.8 92 -0.7 30.7
19:15 1015 29.97 844 24.92 0.5 32.8 92 -0.7 30.7
19:20 1015 29.97 844 24.92 0.4 32.6 92 -0.8 30.5
19:25 1015 29.97 844 24.92 0.3 32.5 92 -0.8 30.5
19:30 1015 29.97 844 24.92 0.2 32.4 92 -0.9 30.4
19:35 1015 29.97 844 24.92 0.2 32.3 93 -0.9 30.4
19:40 1015 29.97 844 24.92 0.2 32.4 93 -0.8 30.5
19:45 1015 29.97 844 24.92 0.2 32.3 93 -0.9 30.4
19:50 1015 29.97 844 24.92 0.1 32.2 93 -0.9 30.4
19:55 1015 29.97 844 24.92 0.1 32.2 93 -0.9 30.4
20:00 1015 29.97 844 24.92 0.2 32.3 93 -0.8 30.5
20:05 1015 29.97 844 24.92 0.2 32.4 93 -0.8 30.6
20:10 1015 29.97 844 24.92 0.2 32.4 93 -0.8 30.6
20:15 1015 29.97 844 24.92 0.2 32.3 93 -0.8 30.6
20:20 1015 29.97 844 24.92 0.2 32.3 93 -0.8 30.5
20:25 1015 29.97 844 24.92 0.2 32.4 93 -0.8 30.6
20:30 1015 29.97 844 24.92 0.2 32.4 93 -0.7 30.7
20:35 1015 29.97 844 24.92 0.2 32.4 93 -0.8 30.6
20:40 1015 29.97 844 24.92 0.1 32.2 93 -0.8 30.5
20:45 1015 29.97 844 24.92 0.2 32.3 93 -0.8 30.6
20:50 1015 29.97 844 24.92 0.2 32.3 93 -0.8 30.6
20:55 1015 29.97 844 24.92 0.2 32.3 93 -0.8 30.6
21:00 1015 29.97 844 24.92 0.3 32.5 94 -0.7 30.8
21:05 1015 29.97 844 24.92 0.3 32.6 93 -0.6 30.9
21:10 1015 29.97 844 24.92 0.3 32.6 93 -0.6 30.9
21:15 1015 29.97 844 24.92 0.4 32.7 93 -0.6 30.9
21:20 1015 29.97 845 24.95 0.4 32.7 93 -0.6 31
21:25 1015 29.97 845 24.95 0.4 32.7 93 -0.6 31
21:30 1015 29.97 845 24.95 0.4 32.7 93 -0.6 31
21:35 1015 29.97 845 24.95 0.4 32.7 93 -0.6 31
21:40 1015 29.97 845 24.95 0.4 32.6 93 -0.6 30.9
21:45 1016 30 845 24.95 0.3 32.6 93 -0.6 30.8
21:50 1016 30 845 24.95 0.3 32.5 93 -0.7 30.8
21:55 1016 30 845 24.95 0.3 32.5 93 -0.7 30.8
22:00 1016 30 845 24.95 0.3 32.5 93 -0.7 30.8
22:05 1016 30 845 24.95 0.2 32.4 93 -0.7 30.8
22:10 1016 30 845 24.95 0.3 32.5 93 -0.7 30.8
22:15 1016 30 845 24.95 0.2 32.4 93 -0.7 30.7
22:20 1016 30 845 24.95 0.2 32.4 93 -0.7 30.7
22:25 1016 30 845 24.95 0.2 32.4 94 -0.7 30.8
22:30 1016 30 845 24.95 0.3 32.6 94 -0.6 30.9
22:35 1016 30 845 24.95 0.3 32.6 94 -0.6 31
22:40 1016 30 845 24.95 0.3 32.5 93 -0.6 30.9
22:45 1016 30 845 24.95 0.3 32.6 93 -0.6 30.9
22:50 1016 30 845 24.95 0.4 32.8 94 -0.5 31.1
22:55 1016 30 845 24.95 0.5 32.9 93 -0.5 31.2
23:00 1016 30 845 24.95 0.5 33 93 -0.4 31.3
23:05 1016 30 845 24.95 0.5 32.9 93 -0.5 31.2
23:10 1016 30 845 24.95 0.4 32.7 93 -0.6 31
23:15 1016 30 845 24.95 0.3 32.6 93 -0.6 30.9
23:20 1016 30 845 24.95 0.4 32.6 93 -0.6 30.9
23:25 1016 30 845 24.95 0.4 32.7 93 -0.5 31
23:30 1016 30 845 24.95 0.6 33 93 -0.4 31.3
23:35 1016 30 846 24.98 0.7 33.3 93 -0.2 31.6
23:40 1016 30 846 24.98 0.8 33.4 93 -0.2 31.7
23:45 1016 30 846 24.98 0.8 33.5 93 -0.1 31.8
23:50 1016 30 846 24.98 1 33.7 93 -0.1 31.9
23:55 1016 30 846 24.98 1 33.8 93 -0.1 31.9
24:00 1016 30 846 24.98 1 33.8 92 -0.1 31.8